Weather History for Scappoose, OR

Change the Weather History Date:

Monday, June 24, 2013

  Actual Average Record
Temperature  
Mean Temperature 62 °F -  
Max Temperature 67 °F - 89 °F (2006)
Min Temperature 56 °F - 42 °F (2003)
Degree Days  
Heating Degree Days 3    
Month to date heating degree days 100  
Since 1 June heating degree days 100  
Since 1 July heating degree days 4717  
Cooling Degree Days 0    
Month to date cooling degree days 11  
Year to date cooling degree days 19  
Since 1 June cooling degree days 11  
Growing Degree Days 12 (Base 50)    
Moisture  
Dew Point 55 °F    
Average Humidity 76    
Maximum Humidity 93    
Minimum Humidity 58    
Precipitation  
Precipitation 0.09 in - 0.33 in (1999)
Month to date precipitation 1.31  
Year to date precipitation 13.63  
Sea Level Pressure  
Sea Level Pressure 29.67 in    
Wind  
Wind Speed 4 mph (South)    
Max Wind Speed 14 mph    
Max Gust Speed 18 mph    
Visibility 10 miles    
Events Rain    
T = Trace of Precipitation, MM = Missing Value Source: NWS Daily Summary

Daily Weather History Graph

Daily Weather History Graph

Search for Another Location

Airport:

Trip Planner

Search our weather history database for the weather conditions in past years. The results will help you decide how hot, cold, wet, or windy it might be!

Date:

Astronomy

Jun. 24, 2013 Rise Set
Actual Time 5:22 AM PDT 9:05 PM PDT
Civil Twilight 4:44 AM PDT 9:43 PM PDT
Nautical Twilight 3:52 AM PDT 10:35 PM PDT
Astronomical Twilight 2:41 AM PDT 11:45 PM PDT
Moon 10:03 PM PDT (6/24) 7:02 AM PDT (6/24)
Length of Visible Light 16h 59m
Length of Day
15h 42m
Full, 97% of the Moon is Illuminated
Jun 24
Full
Jun 29
Last Quarter
Jul 8
New
Jul 15
First Quarter
Jul 22
Full

Hourly Weather History & Observations

Time (PDT) Temp. Dew Point Humidity Pressure Visibility Wind Dir Wind Speed Gust Speed Precip Events Conditions
12:53 AM 62.1 °F 60.1 °F 93% 29.63 in 10.0 mi Calm Calm - N/A   Overcast
1:25 AM 62.6 °F 60.8 °F 94% 29.62 in 5.0 mi South 3.5 mph - 0.02 in Rain Light Rain
1:35 AM 62.6 °F 60.8 °F 94% 29.62 in 7.0 mi SSE 4.6 mph - 0.02 in Rain Light Rain
1:43 AM 62.6 °F 60.8 °F 94% 29.62 in 10.0 mi SSE 5.8 mph - 0.02 in   Overcast
1:53 AM 62.1 °F 59.0 °F 90% 29.61 in 10.0 mi South 8.1 mph - 0.02 in   Overcast
2:26 AM 60.8 °F 57.2 °F 88% 29.62 in 10.0 mi SSE 5.8 mph - N/A   Overcast
2:36 AM 60.8 °F 57.2 °F 88% 29.63 in 10.0 mi SSE 6.9 mph - N/A   Overcast
2:53 AM 61.0 °F 55.9 °F 83% 29.64 in 10.0 mi North - - N/A   Overcast
3:49 AM 60.8 °F 55.4 °F 82% 29.65 in 10.0 mi SSW 6.9 mph - N/A   Overcast
3:53 AM 59.0 °F 55.0 °F 87% 29.65 in 10.0 mi SSW 5.8 mph - N/A   Mostly Cloudy
4:08 AM 59.0 °F 53.6 °F 82% 29.66 in 10.0 mi South 5.8 mph - N/A   Scattered Clouds
4:53 AM 57.9 °F 53.1 °F 84% 29.67 in 10.0 mi South 4.6 mph - N/A   Partly Cloudy
5:53 AM 57.0 °F 51.1 °F 81% 29.68 in 10.0 mi Calm Calm - N/A   Partly Cloudy
6:53 AM 57.0 °F 51.1 °F 81% 29.70 in 10.0 mi South 3.5 mph - N/A   Scattered Clouds
7:53 AM 57.9 °F 52.0 °F 81% 29.70 in 10.0 mi SSE 3.5 mph - N/A   Overcast
8:53 AM 57.9 °F 53.1 °F 84% 29.71 in 10.0 mi South 3.5 mph - 0.01 in Rain Light Rain
9:53 AM 59.0 °F 53.1 °F 81% 29.71 in 10.0 mi South 6.9 mph - 0.00 in Rain Light Rain
10:53 AM 60.1 °F 53.1 °F 78% 29.71 in 10.0 mi South 6.9 mph - 0.00 in Rain Light Rain
11:53 AM 60.1 °F 53.1 °F 78% 29.71 in 10.0 mi SSE 5.8 mph - 0.00 in   Overcast
12:53 PM 63.0 °F 54.0 °F 72% 29.70 in 10.0 mi Variable 5.8 mph - 0.00 in   Overcast
1:53 PM 64.9 °F 55.0 °F 70% 29.69 in 10.0 mi South 5.8 mph - N/A   Overcast
2:53 PM 64.9 °F 53.1 °F 65% 29.69 in 10.0 mi South 4.6 mph - N/A   Overcast
3:53 PM 66.0 °F 52.0 °F 60% 29.69 in 10.0 mi South 3.5 mph - N/A   Overcast
4:53 PM 64.0 °F 50.0 °F 60% 29.70 in 10.0 mi SSW 9.2 mph - N/A   Overcast
5:53 PM 64.9 °F 51.1 °F 61% 29.69 in 10.0 mi Calm Calm - N/A   Overcast
6:53 PM 64.0 °F 50.0 °F 60% 29.70 in 10.0 mi Variable 4.6 mph - N/A   Overcast
7:53 PM 63.0 °F 53.1 °F 70% 29.70 in 10.0 mi Calm Calm - N/A   Overcast
8:53 PM 62.1 °F 54.0 °F 75% 29.69 in 10.0 mi Calm Calm - N/A   Overcast
9:53 PM 60.1 °F 55.0 °F 83% 29.70 in 10.0 mi Calm Calm - 0.00 in   Overcast
10:53 PM 57.9 °F 55.9 °F 93% 29.70 in 10.0 mi Calm Calm - 0.03 in Rain Light Rain
11:53 PM 57.9 °F 55.9 °F 93% 29.70 in 4.0 mi Calm Calm - 0.01 in Rain Light Rain